Terminal Aerodrome Forecast
Issued by NWS

Home | Current Version | Previous Version | Text Only | Print | Product List | Glossary On
Versions: 1 2 3 4 5 6 7 8 9 10 11 12 13 14 15 16 17 18 19 20 21 22 23 24 25
000
FTUS45 KSLC 022343
TAFSGU
TAF
KSGU 022343Z 0300/0324 26008KT P6SM VCSH SCT030 BKN050
     FM030300 VRB04KT P6SM VCSH SCT030 BKN060
     FM031300 VRB05KT P6SM BKN080
      AMD LTD TO CLD VIS AND WIND=

USA.gov is the U.S. government's official web portal to all federal, state and local government web resources and services.